Year,Month,Day,Hour,Minute,Value (Times are PST for temperature in C)
2021,05,29,00,00,9.30
2021,05,29,00,01,9.30
2021,05,29,00,02,9.30
2021,05,29,00,03,9.30
2021,05,29,00,04,9.30
2021,05,29,00,05,9.20
2021,05,29,00,06,9.20
2021,05,29,00,07,9.20
2021,05,29,00,08,9.20
2021,05,29,00,09,9.20
2021,05,29,00,10,9.20
2021,05,29,00,11,9.20
2021,05,29,00,12,9.20
2021,05,29,00,13,9.20
2021,05,29,00,14,9.20
2021,05,29,00,15,9.20
2021,05,29,00,16,9.20
2021,05,29,00,17,9.20
2021,05,29,00,18,9.20
2021,05,29,00,19,9.20
2021,05,29,00,20,9.20
2021,05,29,00,21,9.10
2021,05,29,00,22,9.10
2021,05,29,00,23,9.10
2021,05,29,00,24,9.10
2021,05,29,00,25,9.00
2021,05,29,00,26,9.00
2021,05,29,00,27,9.00
2021,05,29,00,28,9.00
2021,05,29,00,29,8.90
2021,05,29,00,30,8.90
2021,05,29,00,31,8.90
2021,05,29,00,32,8.90
2021,05,29,00,33,8.80
2021,05,29,00,34,8.80
2021,05,29,00,35,8.80
2021,05,29,00,36,8.70
2021,05,29,00,37,8.70
2021,05,29,00,38,8.70
2021,05,29,00,39,8.70
2021,05,29,00,40,8.60
2021,05,29,00,41,8.60
2021,05,29,00,42,8.60
2021,05,29,00,43,8.50
2021,05,29,00,44,8.50
2021,05,29,00,45,8.50
2021,05,29,00,46,8.40
2021,05,29,00,47,8.40
2021,05,29,00,48,8.40
2021,05,29,00,49,8.40
2021,05,29,00,50,8.40
2021,05,29,00,51,8.40
2021,05,29,00,52,8.40
2021,05,29,00,53,8.40
2021,05,29,00,54,8.40
2021,05,29,00,55,8.40
2021,05,29,00,56,8.40
2021,05,29,00,57,8.40
2021,05,29,00,58,8.40
2021,05,29,00,59,8.40
2021,05,29,01,00,8.40
2021,05,29,01,01,8.30
2021,05,29,01,02,8.30
2021,05,29,01,03,8.30
2021,05,29,01,04,8.30
2021,05,29,01,05,8.20
2021,05,29,01,06,8.20
2021,05,29,01,07,8.20
2021,05,29,01,08,8.20
2021,05,29,01,09,8.20
2021,05,29,01,10,8.30
2021,05,29,01,11,8.20
2021,05,29,01,12,8.20
2021,05,29,01,13,8.20
2021,05,29,01,14,8.20
2021,05,29,01,15,8.20
2021,05,29,01,16,8.20
2021,05,29,01,17,8.20
2021,05,29,01,18,8.20
2021,05,29,01,19,8.20
2021,05,29,01,20,8.30
2021,05,29,01,21,8.20
2021,05,29,01,22,8.20
2021,05,29,01,23,8.20
2021,05,29,01,24,8.20
2021,05,29,01,25,8.20
2021,05,29,01,26,8.10
2021,05,29,01,27,8.10
2021,05,29,01,28,8.10
2021,05,29,01,29,8.10
2021,05,29,01,30,8.10
2021,05,29,01,31,8.10
2021,05,29,01,32,8.20
2021,05,29,01,33,8.20
2021,05,29,01,34,8.20
2021,05,29,01,35,8.20
2021,05,29,01,36,8.10
2021,05,29,01,37,8.10
2021,05,29,01,38,8.10
2021,05,29,01,39,8.00
2021,05,29,01,40,8.00
2021,05,29,01,41,8.00
2021,05,29,01,42,8.00
2021,05,29,01,43,7.90
2021,05,29,01,44,7.90
2021,05,29,01,45,7.90
2021,05,29,01,46,7.90
2021,05,29,01,47,7.90
2021,05,29,01,48,7.90
2021,05,29,01,49,7.90
2021,05,29,01,50,7.90
2021,05,29,01,51,7.90
2021,05,29,01,52,7.90
2021,05,29,01,53,7.90
2021,05,29,01,54,7.80
2021,05,29,01,55,7.80
2021,05,29,01,56,7.80
2021,05,29,01,57,7.80
2021,05,29,01,58,7.80
2021,05,29,01,59,7.80
2021,05,29,02,00,7.80
2021,05,29,02,01,7.70
2021,05,29,02,02,7.70
2021,05,29,02,03,7.70
2021,05,29,02,04,7.70
2021,05,29,02,05,7.70
2021,05,29,02,06,7.60
2021,05,29,02,07,7.60
2021,05,29,02,08,7.60
2021,05,29,02,09,7.60
2021,05,29,02,10,7.60
2021,05,29,02,11,7.60
2021,05,29,02,12,7.60
2021,05,29,02,13,7.60
2021,05,29,02,14,7.70
2021,05,29,02,15,7.70
2021,05,29,02,16,7.70
2021,05,29,02,17,7.70
2021,05,29,02,18,7.70
2021,05,29,02,19,7.60
2021,05,29,02,20,7.60
2021,05,29,02,21,7.60
2021,05,29,02,22,7.50
2021,05,29,02,23,7.50
2021,05,29,02,24,7.50
2021,05,29,02,25,7.40
2021,05,29,02,26,7.40
2021,05,29,02,27,7.40
2021,05,29,02,28,7.40
2021,05,29,02,29,7.40
2021,05,29,02,30,7.40
2021,05,29,02,31,7.40
2021,05,29,02,32,7.40
2021,05,29,02,33,7.40
2021,05,29,02,34,7.30
2021,05,29,02,35,7.30
2021,05,29,02,36,7.30
2021,05,29,02,37,7.30
2021,05,29,02,38,7.20
2021,05,29,02,39,7.20
2021,05,29,02,40,7.20
2021,05,29,02,41,7.20
2021,05,29,02,42,7.20
2021,05,29,02,43,7.10
2021,05,29,02,44,7.10
2021,05,29,02,45,7.10
2021,05,29,02,46,7.10
2021,05,29,02,47,7.10
2021,05,29,02,48,7.20
2021,05,29,02,49,7.20
2021,05,29,02,50,7.30
2021,05,29,02,51,7.30
2021,05,29,02,52,7.30
2021,05,29,02,53,7.30
2021,05,29,02,54,7.30
2021,05,29,02,55,7.30
2021,05,29,02,56,7.30
2021,05,29,02,57,7.30
2021,05,29,02,58,7.30
2021,05,29,02,59,7.30
2021,05,29,03,00,7.30
2021,05,29,03,01,7.30
2021,05,29,03,02,7.20
2021,05,29,03,03,7.20
2021,05,29,03,04,7.20
2021,05,29,03,05,7.20
2021,05,29,03,06,7.10
2021,05,29,03,07,7.10
2021,05,29,03,08,7.10
2021,05,29,03,09,7.10
2021,05,29,03,10,7.10
2021,05,29,03,11,7.10
2021,05,29,03,12,7.10
2021,05,29,03,13,7.20
2021,05,29,03,14,7.20
2021,05,29,03,15,7.20
2021,05,29,03,16,7.20
2021,05,29,03,17,7.20
2021,05,29,03,18,7.20
2021,05,29,03,19,7.20
2021,05,29,03,20,7.20
2021,05,29,03,21,7.20
2021,05,29,03,22,7.10
2021,05,29,03,23,7.10
2021,05,29,03,24,7.10
2021,05,29,03,25,7.10
2021,05,29,03,26,7.10
2021,05,29,03,27,7.10
2021,05,29,03,28,7.20
2021,05,29,03,29,7.20
2021,05,29,03,30,7.20
2021,05,29,03,31,7.20
2021,05,29,03,32,7.20
2021,05,29,03,33,7.20
2021,05,29,03,34,7.20
2021,05,29,03,35,7.20
2021,05,29,03,36,7.10
2021,05,29,03,37,7.20
2021,05,29,03,38,7.20
2021,05,29,03,39,7.10
2021,05,29,03,40,7.10
2021,05,29,03,41,7.10
2021,05,29,03,42,7.10
2021,05,29,03,43,7.10
2021,05,29,03,44,7.10
2021,05,29,03,45,7.20
2021,05,29,03,46,7.20
2021,05,29,03,47,7.20
2021,05,29,03,48,7.20
2021,05,29,03,49,7.20
2021,05,29,03,50,7.20
2021,05,29,03,51,7.10
2021,05,29,03,52,7.10
2021,05,29,03,53,7.10
2021,05,29,03,54,7.20
2021,05,29,03,55,7.20
2021,05,29,03,56,7.30
2021,05,29,03,57,7.30
2021,05,29,03,58,7.30
2021,05,29,03,59,7.30
2021,05,29,04,00,7.30
2021,05,29,04,01,7.30
2021,05,29,04,02,7.40
2021,05,29,04,03,7.40
2021,05,29,04,04,7.40
2021,05,29,04,05,7.40
2021,05,29,04,06,7.30
2021,05,29,04,07,7.30
2021,05,29,04,08,7.30
2021,05,29,04,09,7.30
2021,05,29,04,10,7.30
2021,05,29,04,11,7.30
2021,05,29,04,12,7.30
2021,05,29,04,13,7.30
2021,05,29,04,14,7.30
2021,05,29,04,15,7.20
2021,05,29,04,16,7.20
2021,05,29,04,17,7.20
2021,05,29,04,18,7.20
2021,05,29,04,19,7.20
2021,05,29,04,20,7.20
2021,05,29,04,21,7.20
2021,05,29,04,22,7.30
2021,05,29,04,23,7.30
2021,05,29,04,24,7.30
2021,05,29,04,25,7.30
2021,05,29,04,26,7.30
2021,05,29,04,27,7.30
2021,05,29,04,28,7.30
2021,05,29,04,29,7.30
2021,05,29,04,30,7.30
2021,05,29,04,31,7.30
2021,05,29,04,32,7.30
2021,05,29,04,33,7.30
2021,05,29,04,34,7.30
2021,05,29,04,35,7.20
2021,05,29,04,36,7.20
2021,05,29,04,37,7.20
2021,05,29,04,38,7.20
2021,05,29,04,39,7.30
2021,05,29,04,40,7.30
2021,05,29,04,41,7.30
2021,05,29,04,42,7.30
2021,05,29,04,43,7.30
2021,05,29,04,44,7.30
2021,05,29,04,45,7.30
2021,05,29,04,46,7.20
2021,05,29,04,47,7.20
2021,05,29,04,48,7.20
2021,05,29,04,49,7.20
2021,05,29,04,50,7.20
2021,05,29,04,51,7.20
2021,05,29,04,52,7.20
2021,05,29,04,53,7.20
2021,05,29,04,54,7.20
2021,05,29,04,55,7.20
2021,05,29,04,56,7.20
2021,05,29,04,57,7.20
2021,05,29,04,58,7.20
2021,05,29,04,59,7.10
2021,05,29,05,00,7.10
2021,05,29,05,01,7.10
2021,05,29,05,02,7.10
2021,05,29,05,03,7.10
2021,05,29,05,04,7.10
2021,05,29,05,05,7.10
2021,05,29,05,06,7.10
2021,05,29,05,07,7.10
2021,05,29,05,08,7.10
2021,05,29,05,09,7.10
2021,05,29,05,10,7.00
2021,05,29,05,11,7.00
2021,05,29,05,12,7.00
2021,05,29,05,13,7.00
2021,05,29,05,14,7.00
2021,05,29,05,15,6.90
2021,05,29,05,16,6.90
2021,05,29,05,17,6.90
2021,05,29,05,18,6.90
2021,05,29,05,19,6.90
2021,05,29,05,20,6.80
2021,05,29,05,21,6.80
2021,05,29,05,22,6.80
2021,05,29,05,23,6.80
2021,05,29,05,24,6.80
2021,05,29,05,25,6.80
2021,05,29,05,26,6.80
2021,05,29,05,27,6.80
2021,05,29,05,28,6.70
2021,05,29,05,29,6.70
2021,05,29,05,30,6.70
2021,05,29,05,31,6.70
2021,05,29,05,32,6.70
2021,05,29,05,33,6.70
2021,05,29,05,34,6.70
2021,05,29,05,35,6.70
2021,05,29,05,36,6.60
2021,05,29,05,37,6.60
2021,05,29,05,38,6.60
2021,05,29,05,39,6.60
2021,05,29,05,40,6.60
2021,05,29,05,41,6.60
2021,05,29,05,42,6.60
2021,05,29,05,43,6.60
2021,05,29,05,44,6.60
2021,05,29,05,45,6.60
2021,05,29,05,46,6.60
2021,05,29,05,47,6.60
2021,05,29,05,48,6.60
2021,05,29,05,49,6.60
2021,05,29,05,50,6.60
2021,05,29,05,51,6.50
2021,05,29,05,52,6.50
2021,05,29,05,53,6.50
2021,05,29,05,54,6.50
2021,05,29,05,55,6.50
2021,05,29,05,56,6.60
2021,05,29,05,57,6.60
2021,05,29,05,58,6.60
2021,05,29,05,59,6.60
2021,05,29,06,00,6.60
2021,05,29,06,01,6.70
2021,05,29,06,02,6.70
2021,05,29,06,03,6.70
2021,05,29,06,04,6.70
2021,05,29,06,05,6.70
2021,05,29,06,06,6.70
2021,05,29,06,07,6.70
2021,05,29,06,08,6.70
2021,05,29,06,09,6.70
2021,05,29,06,10,6.70
2021,05,29,06,11,6.70
2021,05,29,06,12,6.70
2021,05,29,06,13,6.70
2021,05,29,06,14,6.70
2021,05,29,06,15,6.70
2021,05,29,06,16,6.80
2021,05,29,06,17,6.80
2021,05,29,06,18,6.80
2021,05,29,06,19,6.80
2021,05,29,06,20,6.80
2021,05,29,06,21,6.80
2021,05,29,06,22,6.80
2021,05,29,06,23,6.80
2021,05,29,06,24,6.80
2021,05,29,06,25,6.80
2021,05,29,06,26,6.80
2021,05,29,06,27,6.80
2021,05,29,06,28,6.80
2021,05,29,06,29,6.80
2021,05,29,06,30,6.80
2021,05,29,06,31,6.90
2021,05,29,06,32,6.90
2021,05,29,06,33,6.90
2021,05,29,06,34,6.90
2021,05,29,06,35,6.90
2021,05,29,06,36,6.90
2021,05,29,06,37,6.90
2021,05,29,06,38,7.00
2021,05,29,06,39,7.00
2021,05,29,06,40,7.00
2021,05,29,06,41,7.00
2021,05,29,06,42,7.00
2021,05,29,06,43,7.00
2021,05,29,06,44,7.00
2021,05,29,06,45,7.00
2021,05,29,06,46,7.00
2021,05,29,06,47,7.00
2021,05,29,06,48,7.00
2021,05,29,06,49,7.10
2021,05,29,06,50,7.10
2021,05,29,06,51,7.10
2021,05,29,06,52,7.10
2021,05,29,06,53,7.10
2021,05,29,06,54,7.10
2021,05,29,06,55,7.10
2021,05,29,06,56,7.20
2021,05,29,06,57,7.20
2021,05,29,06,58,7.20
2021,05,29,06,59,7.20
2021,05,29,07,00,7.30
2021,05,29,07,01,7.30
2021,05,29,07,02,7.30
2021,05,29,07,03,7.30
2021,05,29,07,04,7.30
2021,05,29,07,05,7.30
2021,05,29,07,06,7.40
2021,05,29,07,07,7.40
2021,05,29,07,08,7.40
2021,05,29,07,09,7.50
2021,05,29,07,10,7.50
2021,05,29,07,11,7.50
2021,05,29,07,12,7.60
2021,05,29,07,13,7.60
2021,05,29,07,14,7.60
2021,05,29,07,15,7.60
2021,05,29,07,16,7.70
2021,05,29,07,17,7.70
2021,05,29,07,18,7.80
2021,05,29,07,19,7.80
2021,05,29,07,20,7.80
2021,05,29,07,21,7.80
2021,05,29,07,22,7.90
2021,05,29,07,23,7.90
2021,05,29,07,24,7.90
2021,05,29,07,25,8.00
2021,05,29,07,26,8.00
2021,05,29,07,27,8.10
2021,05,29,07,28,8.10
2021,05,29,07,29,8.10
2021,05,29,07,30,8.20
2021,05,29,07,31,8.20
2021,05,29,07,32,8.20
2021,05,29,07,33,8.20
2021,05,29,07,34,8.20
2021,05,29,07,35,8.30
2021,05,29,07,36,8.30
2021,05,29,07,37,8.30
2021,05,29,07,38,8.30
2021,05,29,07,39,8.40
2021,05,29,07,40,8.40
2021,05,29,07,41,8.50
2021,05,29,07,42,8.50
2021,05,29,07,43,8.50
2021,05,29,07,44,8.60
2021,05,29,07,45,8.60
2021,05,29,07,46,8.60
2021,05,29,07,47,8.70
2021,05,29,07,48,8.70
2021,05,29,07,49,8.70
2021,05,29,07,50,8.80
2021,05,29,07,51,8.80
2021,05,29,07,52,8.80
2021,05,29,07,53,8.90
2021,05,29,07,54,8.90
2021,05,29,07,55,9.00
2021,05,29,07,56,9.00
2021,05,29,07,57,9.00
2021,05,29,07,58,9.00
2021,05,29,07,59,9.10
2021,05,29,08,00,9.10
2021,05,29,08,01,9.10
2021,05,29,08,02,9.10
2021,05,29,08,03,9.20
2021,05,29,08,04,9.20
2021,05,29,08,05,9.20
2021,05,29,08,06,9.20
2021,05,29,08,07,9.30
2021,05,29,08,08,9.30
2021,05,29,08,09,9.30
2021,05,29,08,10,9.30
2021,05,29,08,11,9.30
2021,05,29,08,12,9.30
2021,05,29,08,13,9.30
2021,05,29,08,14,9.30
2021,05,29,08,15,9.40
2021,05,29,08,16,9.40
2021,05,29,08,17,9.40
2021,05,29,08,18,9.40
2021,05,29,08,19,9.40
2021,05,29,08,20,9.50
2021,05,29,08,21,9.50
2021,05,29,08,22,9.50
2021,05,29,08,23,9.60
2021,05,29,08,24,9.60
2021,05,29,08,25,9.60
2021,05,29,08,26,9.70
2021,05,29,08,27,9.70
2021,05,29,08,28,9.70
2021,05,29,08,29,9.70
2021,05,29,08,30,9.80
2021,05,29,08,31,9.80
2021,05,29,08,32,9.80
2021,05,29,08,33,9.90
2021,05,29,08,34,9.90
2021,05,29,08,35,9.90
2021,05,29,08,36,9.90
2021,05,29,08,37,9.90
2021,05,29,08,38,9.90
2021,05,29,08,39,10.00
2021,05,29,08,40,10.00
2021,05,29,08,41,10.10
2021,05,29,08,42,10.10
2021,05,29,08,43,10.10
2021,05,29,08,44,10.10
2021,05,29,08,45,10.10
2021,05,29,08,46,10.20
2021,05,29,08,47,10.20
2021,05,29,08,48,10.20
2021,05,29,08,49,10.20
2021,05,29,08,50,10.30
2021,05,29,08,51,10.30
2021,05,29,08,52,10.40
2021,05,29,08,53,10.40
2021,05,29,08,54,10.40
2021,05,29,08,55,10.40
2021,05,29,08,56,10.50
2021,05,29,08,57,10.50
2021,05,29,08,58,10.50
2021,05,29,08,59,10.50
2021,05,29,09,00,10.60
2021,05,29,09,01,10.60
2021,05,29,09,02,10.60
2021,05,29,09,03,10.70
2021,05,29,09,04,10.70
2021,05,29,09,05,10.80
2021,05,29,09,06,10.80
2021,05,29,09,07,10.80
2021,05,29,09,08,10.90
2021,05,29,09,09,10.90
2021,05,29,09,10,10.90
2021,05,29,09,11,11.00
2021,05,29,09,12,11.00
2021,05,29,09,13,11.00
2021,05,29,09,14,11.10
2021,05,29,09,15,11.10
2021,05,29,09,16,11.10
2021,05,29,09,17,11.10
2021,05,29,09,18,11.20
2021,05,29,09,19,11.20
2021,05,29,09,20,11.20
2021,05,29,09,21,11.20
2021,05,29,09,22,11.20
2021,05,29,09,23,11.20
2021,05,29,09,24,11.20
2021,05,29,09,25,11.20
2021,05,29,09,26,11.20
2021,05,29,09,27,11.20
2021,05,29,09,28,11.20
2021,05,29,09,29,11.20
2021,05,29,09,30,11.30
2021,05,29,09,31,11.30
2021,05,29,09,32,11.30
2021,05,29,09,33,11.30
2021,05,29,09,34,11.30
2021,05,29,09,35,11.30
2021,05,29,09,36,11.40
2021,05,29,09,37,11.40
2021,05,29,09,38,11.40
2021,05,29,09,39,11.50
2021,05,29,09,40,11.60
2021,05,29,09,41,11.60
2021,05,29,09,42,11.60
2021,05,29,09,43,11.70
2021,05,29,09,44,11.70
2021,05,29,09,45,11.70
2021,05,29,09,46,11.80
2021,05,29,09,47,11.80
2021,05,29,09,48,11.80
2021,05,29,09,49,11.80
2021,05,29,09,50,11.90
2021,05,29,09,51,11.90
2021,05,29,09,52,11.90
2021,05,29,09,53,12.00
2021,05,29,09,54,12.00
2021,05,29,09,55,12.10
2021,05,29,09,56,12.10
2021,05,29,09,57,12.20
2021,05,29,09,58,12.20
2021,05,29,09,59,12.30
2021,05,29,10,00,12.30
2021,05,29,10,01,12.40
2021,05,29,10,02,12.50
2021,05,29,10,03,12.60
2021,05,29,10,04,12.60
2021,05,29,10,05,12.70
2021,05,29,10,06,12.80
2021,05,29,10,07,12.80
2021,05,29,10,08,12.90
2021,05,29,10,09,13.00
2021,05,29,10,10,13.10
2021,05,29,10,11,13.10
2021,05,29,10,12,13.20
2021,05,29,10,13,13.20
2021,05,29,10,14,13.30
2021,05,29,10,15,13.30
2021,05,29,10,16,13.40
2021,05,29,10,17,13.50
2021,05,29,10,18,13.50
2021,05,29,10,19,13.50
2021,05,29,10,20,13.60
2021,05,29,10,21,13.70
2021,05,29,10,22,13.70
2021,05,29,10,23,13.80
2021,05,29,10,24,13.80
2021,05,29,10,25,13.80
2021,05,29,10,26,13.90
2021,05,29,10,27,13.90
2021,05,29,10,28,13.90
2021,05,29,10,29,14.00
2021,05,29,10,30,14.00
2021,05,29,10,31,14.00
2021,05,29,10,32,14.00
2021,05,29,10,33,14.10
2021,05,29,10,34,14.10
2021,05,29,10,35,14.20
2021,05,29,10,36,14.20
2021,05,29,10,37,14.30
2021,05,29,10,38,14.30
2021,05,29,10,39,14.40
2021,05,29,10,40,14.50
2021,05,29,10,41,14.60
2021,05,29,10,42,14.60
2021,05,29,10,43,14.70
2021,05,29,10,44,14.80
2021,05,29,10,45,14.80
2021,05,29,10,46,14.80
2021,05,29,10,47,14.90
2021,05,29,10,48,14.90
2021,05,29,10,49,14.80
2021,05,29,10,50,14.80
2021,05,29,10,51,14.80
2021,05,29,10,52,14.80
2021,05,29,10,53,14.80
2021,05,29,10,54,14.80
2021,05,29,10,55,14.90
2021,05,29,10,56,14.90
2021,05,29,10,57,14.90
2021,05,29,10,58,15.00
2021,05,29,10,59,15.10
2021,05,29,11,00,15.20
2021,05,29,11,01,15.30
2021,05,29,11,02,15.40
2021,05,29,11,03,15.50
2021,05,29,11,04,15.60
2021,05,29,11,05,15.60
2021,05,29,11,06,15.60
2021,05,29,11,07,15.60
2021,05,29,11,08,15.60
2021,05,29,11,09,15.70
2021,05,29,11,10,15.70
2021,05,29,11,11,15.70
2021,05,29,11,12,15.70
2021,05,29,11,13,15.70
2021,05,29,11,14,15.80
2021,05,29,11,15,15.90
2021,05,29,11,16,15.90
2021,05,29,11,17,15.80
2021,05,29,11,18,15.80
2021,05,29,11,19,15.80
2021,05,29,11,20,15.70
2021,05,29,11,21,15.70
2021,05,29,11,22,15.80
2021,05,29,11,23,15.80
2021,05,29,11,24,15.90
2021,05,29,11,25,15.90
2021,05,29,11,26,15.90
2021,05,29,11,27,15.90
2021,05,29,11,28,15.90
2021,05,29,11,29,15.90
2021,05,29,11,30,15.90
2021,05,29,11,31,15.90
2021,05,29,11,32,15.90
2021,05,29,11,33,15.90
2021,05,29,11,34,16.00
2021,05,29,11,35,16.10
2021,05,29,11,36,16.10
2021,05,29,11,37,16.10
2021,05,29,11,38,16.20
2021,05,29,11,39,16.30
2021,05,29,11,40,16.30
2021,05,29,11,41,16.30
2021,05,29,11,42,16.30
2021,05,29,11,43,16.30
2021,05,29,11,44,16.30
2021,05,29,11,45,16.30
2021,05,29,11,46,16.30
2021,05,29,11,47,16.30
2021,05,29,11,48,16.40
2021,05,29,11,49,16.40
2021,05,29,11,50,16.40
2021,05,29,11,51,16.30
2021,05,29,11,52,16.30
2021,05,29,11,53,16.30
2021,05,29,11,54,16.20
2021,05,29,11,55,16.20
2021,05,29,11,56,16.20
2021,05,29,11,57,16.20
2021,05,29,11,58,16.20
2021,05,29,11,59,16.20
2021,05,29,12,00,16.30
2021,05,29,12,01,16.30
2021,05,29,12,02,16.40
2021,05,29,12,03,16.40
2021,05,29,12,04,16.50
2021,05,29,12,05,16.60
2021,05,29,12,06,16.60
2021,05,29,12,07,16.70
2021,05,29,12,08,16.70
2021,05,29,12,09,16.70
2021,05,29,12,10,16.70
2021,05,29,12,11,16.70
2021,05,29,12,12,16.70
2021,05,29,12,13,16.70
2021,05,29,12,14,16.70
2021,05,29,12,15,16.60
2021,05,29,12,16,16.60
2021,05,29,12,17,16.60
2021,05,29,12,18,16.60
2021,05,29,12,19,16.60
2021,05,29,12,20,16.60
2021,05,29,12,21,16.60
2021,05,29,12,22,16.70
2021,05,29,12,23,16.70
2021,05,29,12,24,16.80
2021,05,29,12,25,16.80
2021,05,29,12,26,16.70
2021,05,29,12,27,16.60
2021,05,29,12,28,16.60
2021,05,29,12,29,16.60
2021,05,29,12,30,16.50
2021,05,29,12,31,16.50
2021,05,29,12,32,16.50
2021,05,29,12,33,16.60
2021,05,29,12,34,16.70
2021,05,29,12,35,16.70
2021,05,29,12,36,16.70
2021,05,29,12,37,16.70
2021,05,29,12,38,16.80
2021,05,29,12,39,16.80
2021,05,29,12,40,16.90
2021,05,29,12,41,17.00
2021,05,29,12,42,17.00
2021,05,29,12,43,17.00
2021,05,29,12,44,17.10
2021,05,29,12,45,17.20
2021,05,29,12,46,17.20
2021,05,29,12,47,17.20
2021,05,29,12,48,17.10
2021,05,29,12,49,17.00
2021,05,29,12,50,16.90
2021,05,29,12,51,16.90
2021,05,29,12,52,17.00
2021,05,29,12,53,17.00
2021,05,29,12,54,17.00
2021,05,29,12,55,17.00
2021,05,29,12,56,17.00
2021,05,29,12,57,17.10
2021,05,29,12,58,17.10
2021,05,29,12,59,17.10
2021,05,29,13,00,17.10
2021,05,29,13,01,17.10
2021,05,29,13,02,17.20
2021,05,29,13,03,17.20
2021,05,29,13,04,17.30
2021,05,29,13,05,17.20
2021,05,29,13,06,17.20
2021,05,29,13,07,17.20
2021,05,29,13,08,17.00
2021,05,29,13,09,16.90
2021,05,29,13,10,16.90
2021,05,29,13,11,16.90
2021,05,29,13,12,16.90
2021,05,29,13,13,17.00
2021,05,29,13,14,17.00
2021,05,29,13,15,17.00
2021,05,29,13,16,17.00
2021,05,29,13,17,16.90
2021,05,29,13,18,16.90
2021,05,29,13,19,16.90
2021,05,29,13,20,16.90
2021,05,29,13,21,17.00
2021,05,29,13,22,17.00
2021,05,29,13,23,17.10
2021,05,29,13,24,17.10
2021,05,29,13,25,17.20
2021,05,29,13,26,17.20
2021,05,29,13,27,17.20
2021,05,29,13,28,17.20
2021,05,29,13,29,17.20
2021,05,29,13,30,17.30
2021,05,29,13,31,17.30
2021,05,29,13,32,17.20
2021,05,29,13,33,17.20
2021,05,29,13,34,17.20
2021,05,29,13,35,17.20
2021,05,29,13,36,17.30
2021,05,29,13,37,17.20
2021,05,29,13,38,17.20
2021,05,29,13,39,17.20
2021,05,29,13,40,17.20
2021,05,29,13,41,17.10
2021,05,29,13,42,17.10
2021,05,29,13,43,17.10
2021,05,29,13,44,17.10
2021,05,29,13,45,17.10
2021,05,29,13,46,17.20
2021,05,29,13,47,17.20
2021,05,29,13,48,17.30
2021,05,29,13,49,17.30
2021,05,29,13,50,17.40
2021,05,29,13,51,17.40
2021,05,29,13,52,17.30
2021,05,29,13,53,17.30
2021,05,29,13,54,17.40
2021,05,29,13,55,17.40
2021,05,29,13,56,17.60
2021,05,29,13,57,17.60
2021,05,29,13,58,17.60
2021,05,29,13,59,17.60
2021,05,29,14,00,17.60
2021,05,29,14,01,17.50
2021,05,29,14,02,17.30
2021,05,29,14,03,17.00
2021,05,29,14,04,16.90
2021,05,29,14,05,16.80
2021,05,29,14,06,16.80
2021,05,29,14,07,16.90
2021,05,29,14,08,16.90
2021,05,29,14,09,17.00
2021,05,29,14,10,17.10
2021,05,29,14,11,17.20
2021,05,29,14,12,17.10
2021,05,29,14,13,17.10
2021,05,29,14,14,17.10
2021,05,29,14,15,17.10
2021,05,29,14,16,17.10
2021,05,29,14,17,17.10
2021,05,29,14,18,17.20
2021,05,29,14,19,17.30
2021,05,29,14,20,17.50
2021,05,29,14,21,17.60
2021,05,29,14,22,17.80
2021,05,29,14,23,17.90
2021,05,29,14,24,17.80
2021,05,29,14,25,17.80
2021,05,29,14,26,17.80
2021,05,29,14,27,17.80
2021,05,29,14,28,17.80
2021,05,29,14,29,17.90
2021,05,29,14,30,17.90
2021,05,29,14,31,17.90
2021,05,29,14,32,18.00
2021,05,29,14,33,18.00
2021,05,29,14,34,18.10
2021,05,29,14,35,18.00
2021,05,29,14,36,17.90
2021,05,29,14,37,17.90
2021,05,29,14,38,17.80
2021,05,29,14,39,17.70
2021,05,29,14,40,17.70
2021,05,29,14,41,17.60
2021,05,29,14,42,17.70
2021,05,29,14,43,17.80
2021,05,29,14,44,17.80
2021,05,29,14,45,17.90
2021,05,29,14,46,17.80
2021,05,29,14,47,17.80
2021,05,29,14,48,17.70
2021,05,29,14,49,17.80
2021,05,29,14,50,17.80
2021,05,29,14,51,17.80
2021,05,29,14,52,17.80
2021,05,29,14,53,17.80
2021,05,29,14,54,17.80
2021,05,29,14,55,17.90
2021,05,29,14,56,17.90
2021,05,29,14,57,18.00
2021,05,29,14,58,18.10
2021,05,29,14,59,18.30
2021,05,29,15,00,18.30
2021,05,29,15,01,18.30
2021,05,29,15,02,18.20
2021,05,29,15,03,18.10
2021,05,29,15,04,18.00
2021,05,29,15,05,17.90
2021,05,29,15,06,18.00
2021,05,29,15,07,18.00
2021,05,29,15,08,18.00
2021,05,29,15,09,18.10
2021,05,29,15,10,18.10
2021,05,29,15,11,18.10
2021,05,29,15,12,18.20
2021,05,29,15,13,18.30
2021,05,29,15,14,18.30
2021,05,29,15,15,18.20
2021,05,29,15,16,18.20
2021,05,29,15,17,18.20
2021,05,29,15,18,18.30
2021,05,29,15,19,18.30
2021,05,29,15,20,18.40
2021,05,29,15,21,18.40
2021,05,29,15,22,18.40
2021,05,29,15,23,18.40
2021,05,29,15,24,18.30
2021,05,29,15,25,18.30
2021,05,29,15,26,18.20
2021,05,29,15,27,18.20
2021,05,29,15,28,18.20
2021,05,29,15,29,18.20
2021,05,29,15,30,18.20
2021,05,29,15,31,18.30
2021,05,29,15,32,18.30
2021,05,29,15,33,18.30
2021,05,29,15,34,18.30
2021,05,29,15,35,18.30
2021,05,29,15,36,18.30
2021,05,29,15,37,18.30
2021,05,29,15,38,18.30
2021,05,29,15,39,18.40
2021,05,29,15,40,18.50
2021,05,29,15,41,18.50
2021,05,29,15,42,18.50
2021,05,29,15,43,18.50
2021,05,29,15,44,18.60
2021,05,29,15,45,18.70
2021,05,29,15,46,18.70
2021,05,29,15,47,18.80
2021,05,29,15,48,18.90
2021,05,29,15,49,19.00
2021,05,29,15,50,19.10
2021,05,29,15,51,19.10
2021,05,29,15,52,19.20
2021,05,29,15,53,19.20
2021,05,29,15,54,19.30
2021,05,29,15,55,19.20
2021,05,29,15,56,19.10
2021,05,29,15,57,18.90
2021,05,29,15,58,18.80
2021,05,29,15,59,18.80
2021,05,29,16,00,18.80
2021,05,29,16,01,18.80
2021,05,29,16,02,18.80
2021,05,29,16,03,18.90
2021,05,29,16,04,18.90
2021,05,29,16,05,19.00
2021,05,29,16,06,19.10
2021,05,29,16,07,19.00
2021,05,29,16,08,18.90
2021,05,29,16,09,18.80
2021,05,29,16,10,18.60
2021,05,29,16,11,18.50
2021,05,29,16,12,18.40
2021,05,29,16,13,18.40
2021,05,29,16,14,18.30
2021,05,29,16,15,18.40
2021,05,29,16,16,18.40
2021,05,29,16,17,18.50
2021,05,29,16,18,18.40
2021,05,29,16,19,18.50
2021,05,29,16,20,18.50
2021,05,29,16,21,18.50
2021,05,29,16,22,18.50
2021,05,29,16,23,18.60
2021,05,29,16,24,18.60
2021,05,29,16,25,18.60
2021,05,29,16,26,18.70
2021,05,29,16,27,18.80
2021,05,29,16,28,18.90
2021,05,29,16,29,19.00
2021,05,29,16,30,19.00
2021,05,29,16,31,19.10
2021,05,29,16,32,19.30
2021,05,29,16,33,19.30
2021,05,29,16,34,19.30
2021,05,29,16,35,19.20
2021,05,29,16,36,19.10
2021,05,29,16,37,19.10
2021,05,29,16,38,19.10
2021,05,29,16,39,19.10
2021,05,29,16,40,19.10
2021,05,29,16,41,19.10
2021,05,29,16,42,19.10
2021,05,29,16,43,19.10
2021,05,29,16,44,19.20
2021,05,29,16,45,19.20
2021,05,29,16,46,19.20
2021,05,29,16,47,19.20
2021,05,29,16,48,19.20
2021,05,29,16,49,19.20
2021,05,29,16,50,19.30
2021,05,29,16,51,19.30
2021,05,29,16,52,19.20
2021,05,29,16,53,19.20
2021,05,29,16,54,19.10
2021,05,29,16,55,19.10
2021,05,29,16,56,19.10
2021,05,29,16,57,19.10
2021,05,29,16,58,19.10
2021,05,29,16,59,19.10
2021,05,29,17,00,19.20
2021,05,29,17,01,19.30
2021,05,29,17,02,19.40
2021,05,29,17,03,19.40
2021,05,29,17,04,19.40
2021,05,29,17,05,19.40
2021,05,29,17,06,19.40
2021,05,29,17,07,19.40
2021,05,29,17,08,19.50
2021,05,29,17,09,19.50
2021,05,29,17,10,19.50
2021,05,29,17,11,19.40
2021,05,29,17,12,19.30
2021,05,29,17,13,19.20
2021,05,29,17,14,19.20
2021,05,29,17,15,19.10
2021,05,29,17,16,19.10
2021,05,29,17,17,19.10
2021,05,29,17,18,19.10
2021,05,29,17,19,19.10
2021,05,29,17,20,19.20
2021,05,29,17,21,19.30
2021,05,29,17,22,19.30
2021,05,29,17,23,19.40
2021,05,29,17,24,19.40
2021,05,29,17,25,19.40
2021,05,29,17,26,19.50
2021,05,29,17,27,19.50
2021,05,29,17,28,19.40
2021,05,29,17,29,19.40
2021,05,29,17,30,19.40
2021,05,29,17,31,19.40
2021,05,29,17,32,19.40
2021,05,29,17,33,19.40
2021,05,29,17,34,19.40
2021,05,29,17,35,19.40
2021,05,29,17,36,19.40
2021,05,29,17,37,19.30
2021,05,29,17,38,19.30
2021,05,29,17,39,19.30
2021,05,29,17,40,19.20
2021,05,29,17,41,19.20
2021,05,29,17,42,19.20